Theta_e
341 343 344 343 343 342 342 342 342 342 341 341 340 340 340 340 340 340 341 340 340 339 338 338 337 338 338 338 338 338 338 339 340 340 340 341 341 341 341 341 340 340 340 340 339 338 338 337 337 336 335 335 335 335 334 333 333 331 331 332 331 330 330 328 326 324 321 320 320 319 318 318 317 315 314 313 312 311 311 310 309 308 306 305 304
337 339 343 344 344 343 342 343 343 342 342 341 341 340 340 340 340 341 341 341 341 340 340 339 338 338 338 338 338 338 338 338 339 340 340 341 341 341 341 340 340 340 340 340 339 338 338 337 337 336 335 335 336 335 334 333 332 332 332 332 331 330 330 329 326 322 318 317 317 317 317 316 315 314 314 313 312 311 310 310 309 307 306 305 304
339 339 338 340 343 344 343 343 343 343 342 342 342 341 341 340 340 341 342 341 341 341 341 340 339 339 338 338 338 338 339 339 339 340 340 340 340 340 340 340 340 340 339 339 339 338 338 337 337 336 336 336 336 334 333 333 332 332 332 332 331 330 330 329 326 322 318 314 314 315 315 314 314 314 313 312 311 311 310 309 308 307 306 305 304
340 341 339 338 340 342 344 344 343 343 343 343 342 342 342 341 341 341 341 342 342 342 342 341 340 340 339 339 339 338 339 339 339 340 340 340 340 340 340 340 340 340 339 339 339 338 337 337 336 336 336 336 335 333 333 333 333 332 332 331 331 331 330 329 326 323 319 314 312 313 314 313 312 312 313 311 310 310 309 309 307 306 306 305 304
341 342 341 340 339 338 341 344 344 344 344 344 343 343 343 342 342 342 342 342 342 342 342 342 341 341 340 339 339 339 339 339 340 340 340 340 340 340 340 340 339 339 339 339 339 338 337 337 336 336 335 334 334 333 332 332 332 332 332 331 331 331 330 328 326 323 320 316 313 311 311 311 311 311 311 310 310 309 308 307 307 306 305 305 304
339 338 336 336 337 337 337 340 343 345 345 344 345 344 344 343 343 343 343 342 343 342 342 342 342 341 341 340 340 340 339 340 340 340 340 340 340 340 340 340 339 339 339 338 338 338 337 337 336 335 334 334 333 332 331 331 331 331 331 330 330 330 329 327 325 322 319 317 314 310 309 310 310 309 310 310 309 308 308 307 306 306 305 305 304
337 337 335 333 334 336 337 336 339 345 346 345 346 345 345 344 344 344 343 343 343 343 343 343 342 342 342 341 341 340 340 340 340 340 340 340 340 340 340 339 339 339 339 338 338 337 337 336 336 335 334 333 333 331 330 330 331 330 330 329 329 328 327 325 323 320 317 316 313 310 309 309 309 309 309 309 308 308 307 307 306 306 305 305 304
337 338 337 335 334 335 336 336 338 343 345 346 346 346 346 346 345 344 344 344 344 344 343 343 343 342 342 341 341 341 340 340 340 340 340 340 340 340 340 340 339 338 338 338 337 337 336 335 335 334 334 334 333 331 330 330 331 331 330 329 328 326 325 324 322 319 316 315 313 310 309 308 308 308 308 307 306 306 306 306 306 306 305 305 305
335 336 335 333 332 332 333 335 338 341 344 346 346 346 346 346 346 345 345 345 345 344 344 343 343 343 343 342 342 341 341 341 340 340 340 340 340 340 340 340 339 338 338 337 337 336 336 335 334 334 334 333 332 331 330 330 330 331 329 328 326 325 323 322 320 317 315 314 313 310 309 308 308 308 307 306 305 305 305 305 305 305 304 304 305
332 332 332 330 328 328 330 333 337 340 343 346 347 346 346 346 346 346 346 345 345 345 344 344 344 343 343 342 342 342 341 341 341 340 340 340 340 340 340 339 339 339 337 336 336 335 335 334 334 333 333 333 332 331 330 329 329 329 329 327 325 324 321 319 317 316 314 313 313 311 309 308 308 309 308 307 305 304 305 305 305 304 304 305 305
330 331 331 329 328 330 331 332 334 338 341 345 347 347 347 347 347 347 346 346 345 345 345 344 344 344 343 343 342 342 341 341 341 341 340 340 340 340 340 339 339 338 338 337 336 335 334 334 333 333 332 332 332 331 330 329 329 328 327 327 326 324 322 319 316 314 313 313 313 312 310 309 310 311 309 307 305 304 304 305 304 304 305 305 306
327 329 332 333 333 334 335 336 337 339 342 345 346 346 347 347 347 347 347 346 346 345 345 344 344 344 343 343 342 342 342 342 341 341 341 340 340 340 340 339 339 338 337 337 336 334 333 332 332 332 332 332 331 331 330 329 329 328 327 326 325 324 323 321 319 315 313 312 312 312 311 311 311 310 309 307 305 305 305 305 305 305 306 306 306
324 325 329 332 333 335 338 340 342 342 344 344 344 344 345 346 347 347 347 347 346 346 345 344 344 344 343 343 343 342 342 342 341 341 341 340 340 340 340 339 339 338 337 336 336 335 334 332 331 331 331 331 331 330 330 329 328 327 326 325 324 323 322 321 319 316 313 312 312 312 312 312 311 310 309 307 306 306 305 305 306 306 306 306 306
323 323 324 325 327 329 332 336 339 341 342 342 342 343 343 344 346 347 347 347 346 346 345 345 344 344 344 343 343 342 342 342 342 341 341 341 340 340 339 339 338 338 337 336 336 335 334 332 331 331 331 331 330 330 329 328 327 326 325 324 322 321 319 317 314 313 312 311 311 311 311 311 311 310 309 307 307 307 306 306 306 306 306 306 306
321 321 322 323 324 325 326 329 333 336 338 339 339 340 341 342 343 345 346 347 346 346 346 345 345 344 344 343 343 343 342 342 342 342 341 341 340 339 339 339 338 337 337 336 336 336 334 332 331 331 331 330 330 329 328 327 326 324 323 322 320 319 317 315 312 311 311 311 311 311 311 311 310 309 308 308 307 307 307 306 306 306 307 307 306
319 319 320 321 321 322 323 325 327 331 335 337 338 339 340 341 341 341 341 343 345 346 346 345 345 344 344 344 343 342 342 342 342 342 341 340 340 339 338 338 338 337 336 336 336 335 334 333 331 331 331 330 330 329 327 326 325 323 322 320 318 317 315 314 312 311 311 311 311 311 310 309 308 307 308 308 307 307 307 306 306 306 307 306 306
320 319 319 319 319 320 320 321 324 327 331 334 335 336 338 340 341 340 338 337 339 342 345 346 346 344 344 343 343 342 342 342 342 342 341 340 339 338 337 338 338 337 336 335 335 335 334 332 331 331 331 330 330 328 327 325 324 322 320 318 316 314 313 312 311 311 311 311 310 309 307 307 307 307 308 308 307 307 307 306 306 307 306 305 305
322 321 320 318 318 318 318 320 323 326 328 330 331 332 333 334 337 338 337 335 334 336 338 341 344 345 345 344 343 343 342 342 342 342 341 340 339 338 337 337 337 336 335 335 334 334 334 332 331 331 331 330 330 328 326 325 323 321 319 317 314 312 311 310 310 310 309 309 308 307 307 307 307 307 307 307 307 307 307 307 307 306 306 305 303
323 322 321 321 320 320 320 321 323 324 326 328 330 331 331 331 332 334 334 334 333 333 333 334 338 342 344 344 344 343 343 342 342 342 341 340 339 338 336 336 336 336 335 334 333 332 332 331 330 330 331 331 330 328 326 324 322 320 318 316 313 311 311 310 309 309 309 308 308 308 307 307 307 307 307 307 307 307 307 307 307 306 306 304 301
324 323 323 323 323 323 324 324 324 324 325 326 327 329 331 331 332 333 333 332 332 333 333 333 334 335 337 340 342 343 343 342 342 342 341 340 340 338 336 336 336 336 335 334 333 331 330 329 329 329 330 330 330 328 327 325 323 321 318 315 313 312 311 310 309 309 308 308 308 308 308 307 307 307 307 307 307 307 307 307 307 307 305 301 299
324 323 322 322 323 324 324 324 324 324 324 326 327 329 330 331 331 333 334 333 332 333 334 335 334 334 334 336 338 341 343 343 342 342 341 341 340 339 337 336 336 336 335 333 332 330 329 327 327 326 327 328 329 328 327 326 324 321 318 316 315 314 313 310 309 308 308 308 308 308 307 307 307 307 307 307 307 307 307 307 307 306 303 299 298
322 322 322 323 324 325 325 324 324 326 328 330 330 330 331 332 332 332 333 334 333 333 334 334 334 334 335 334 333 335 339 342 342 342 342 341 341 339 338 337 337 336 334 333 331 330 329 327 325 325 326 328 329 328 328 326 324 320 318 317 316 315 313 311 309 308 307 307 307 308 308 308 307 307 307 307 307 307 307 307 306 305 302 299 298
324 324 325 325 326 326 326 326 327 329 331 332 331 330 331 332 332 332 332 333 333 333 333 333 332 332 333 333 331 331 334 338 340 341 341 340 340 340 339 339 337 336 335 333 332 330 329 327 325 324 326 328 328 328 328 326 323 321 318 316 315 314 312 310 308 307 307 307 307 307 308 307 308 307 307 307 307 307 307 306 305 304 301 299 297
327 327 328 328 328 328 328 329 331 332 333 332 331 331 332 332 331 330 331 331 332 332 331 332 331 331 331 331 331 331 331 333 336 339 340 339 339 339 340 339 338 336 335 334 332 331 329 327 325 324 326 328 329 328 327 327 325 321 317 315 314 313 311 308 307 307 306 306 306 306 306 307 307 307 307 307 306 306 306 305 304 303 300 297 296
328 328 328 328 328 329 330 331 332 333 333 332 331 331 331 331 330 329 329 329 329 330 331 331 331 331 331 331 330 331 331 330 332 335 337 338 338 339 340 339 338 336 335 334 333 331 329 327 325 325 326 328 328 327 326 326 325 321 317 314 312 311 309 307 306 306 305 304 304 305 305 306 305 305 305 305 305 305 304 303 303 301 299 296 296
327 327 327 328 328 329 331 332 332 332 331 331 331 331 331 330 329 329 329 329 329 329 329 330 330 330 330 330 330 331 331 330 331 334 334 334 336 337 339 339 338 336 335 335 334 331 330 328 325 324 327 329 328 325 323 323 322 318 315 313 311 310 308 306 305 305 304 303 303 304 304 304 304 304 304 303 303 302 301 300 298 297 297 297 299
327 327 327 328 328 330 331 331 331 330 330 330 330 330 331 330 329 328 328 329 330 330 329 329 329 329 329 330 330 330 330 330 331 333 333 332 332 334 337 337 335 333 331 332 332 331 329 327 325 324 325 326 323 320 319 318 316 313 312 311 310 309 308 306 306 305 304 303 303 303 303 303 302 302 301 301 301 299 298 296 295 297 299 300 302
327 328 328 328 328 330 330 330 330 330 329 328 328 329 330 330 329 328 328 328 329 330 330 329 329 328 329 329 329 329 329 329 331 333 334 333 332 331 331 331 330 329 328 327 328 328 326 323 321 320 320 318 315 313 313 312 310 309 309 310 309 307 307 306 305 305 304 303 302 301 301 300 300 301 301 301 299 297 296 296 298 301 303 303 303
324 326 329 329 330 330 330 330 329 328 327 327 327 327 327 328 328 328 329 329 329 329 330 330 330 329 330 330 330 329 328 328 330 332 333 335 334 331 329 329 330 328 327 327 326 324 321 318 316 315 314 312 311 310 309 308 308 308 308 308 307 306 305 305 304 303 303 302 301 301 301 301 303 303 302 300 299 298 299 301 303 304 304 303 304
322 323 325 326 328 329 329 329 329 327 326 325 325 325 326 326 327 328 328 328 329 329 329 330 330 330 330 330 330 331 330 330 331 332 332 334 334 333 332 335 334 329 326 326 324 320 317 315 313 313 312 310 309 308 307 307 307 307 307 307 306 304 304 304 304 303 302 302 302 302 303 304 305 304 302 301 301 302 303 304 304 304 304 303 304
321 321 320 320 321 324 325 326 327 327 327 326 325 325 325 325 326 327 328 328 328 328 329 329 330 330 330 330 331 331 331 331 331 331 332 332 332 332 332 334 333 329 326 325 321 317 315 314 312 311 311 309 309 308 307 307 307 307 306 305 304 303 304 304 304 303 303 303 303 304 306 306 306 304 303 304 304 304 305 304 304 304 304 304 304
316 316 315 314 316 319 321 323 325 325 325 325 325 324 324 324 325 326 327 327 328 328 329 329 329 330 330 330 331 330 330 331 331 331 331 332 331 330 329 329 328 326 326 325 320 316 316 314 312 310 310 309 309 308 308 307 307 307 306 305 303 304 305 305 303 303 303 304 305 306 307 306 305 305 305 305 305 305 304 304 303 304 304 305 305
313 312 312 311 313 315 317 320 321 322 322 323 323 324 324 324 324 325 326 326 327 328 329 329 329 330 330 330 330 330 330 331 331 332 332 331 330 328 326 326 327 326 324 322 317 315 316 316 313 311 310 310 309 308 308 308 307 306 306 305 304 304 305 304 303 302 303 305 306 307 307 306 306 306 305 304 304 304 303 302 303 304 305 305 305
313 311 310 310 311 313 314 316 317 318 318 319 320 321 322 323 324 324 324 325 325 326 327 328 329 329 329 329 329 329 330 330 331 332 332 329 327 326 324 323 323 323 322 320 317 315 316 316 314 312 311 311 310 309 308 308 307 306 305 305 305 304 304 304 303 303 303 305 306 306 306 306 306 305 303 303 303 302 302 302 303 304 303 303 303
312 311 309 309 310 311 312 313 314 314 315 315 316 318 319 320 321 322 322 323 323 324 325 327 328 329 329 329 329 329 329 330 330 331 331 328 325 323 319 315 313 313 316 318 318 317 316 316 315 313 312 311 310 309 308 307 307 305 305 305 305 304 304 303 303 303 303 303 305 305 306 306 306 304 303 303 302 302 301 302 302 303 303 302 303
310 310 309 308 309 309 310 311 311 311 311 312 313 315 316 317 318 320 321 322 322 323 324 325 326 327 328 329 330 330 330 330 330 330 329 327 324 320 315 311 309 310 312 315 317 317 316 316 316 314 312 311 311 310 309 308 306 305 305 304 303 303 303 303 303 303 303 303 303 304 304 305 304 304 304 304 303 302 301 301 301 302 302 302 303
307 310 309 308 308 308 308 309 309 309 309 310 311 313 313 314 316 318 320 321 321 322 322 323 324 324 324 326 328 328 328 328 328 327 326 324 322 320 317 313 312 312 312 314 316 317 316 316 315 314 312 311 310 309 308 307 306 305 304 303 303 304 305 304 303 303 303 303 302 302 302 303 303 305 306 305 303 301 301 301 301 301 302 302 303
304 308 310 309 308 308 308 308 308 308 308 309 310 311 311 312 313 316 318 320 320 320 320 321 320 320 321 323 324 323 321 320 318 317 315 314 315 317 318 316 316 315 313 314 316 316 316 315 315 313 312 311 309 308 307 306 305 304 303 303 304 305 306 304 303 303 303 303 302 302 302 301 302 304 306 306 305 303 303 302 301 301 302 302 302
301 305 309 310 309 308 308 308 308 308 307 308 309 309 310 310 311 313 315 316 317 317 318 318 318 318 319 320 320 317 315 312 310 309 308 308 310 314 316 317 316 316 315 315 315 316 316 315 313 312 311 310 309 308 307 306 305 304 303 304 305 305 303 302 302 302 302 302 302 302 302 302 301 302 304 306 306 305 304 303 301 301 302 302 302
299 303 308 310 309 308 308 308 308 307 307 307 307 308 309 309 309 310 312 313 314 315 315 315 315 316 316 316 316 314 312 310 309 308 307 306 308 312 315 316 316 316 315 315 315 315 315 314 312 311 310 309 308 307 307 306 305 304 304 305 304 303 302 302 302 301 301 301 300 301 301 302 302 302 304 305 305 305 305 303 302 301 301 301 302
298 302 305 308 309 308 307 307 307 307 306 306 306 306 306 307 308 309 310 311 312 313 313 313 314 314 312 311 312 312 312 310 309 309 308 307 308 311 314 316 316 316 315 315 315 314 314 313 312 311 310 309 308 308 307 306 306 305 305 305 303 302 301 301 301 300 300 300 299 299 300 301 302 303 305 305 305 305 305 304 303 301 301 301 301
297 300 302 305 307 308 307 306 306 306 306 305 305 304 304 305 306 307 307 308 309 311 312 313 312 312 311 309 308 309 310 310 309 308 308 308 309 311 313 315 315 315 315 315 314 314 314 313 312 311 310 309 308 307 307 306 305 305 304 304 303 302 301 301 301 300 300 300 299 299 299 300 301 302 304 305 305 305 305 305 304 302 301 301 301
296 297 299 301 304 307 307 306 305 305 305 305 305 304 304 304 304 304 304 305 306 308 309 309 309 309 308 307 306 307 308 309 308 307 307 308 308 310 312 313 313 313 313 313 313 313 312 312 312 311 310 309 308 308 308 307 306 305 304 304 303 302 302 301 301 301 300 300 300 300 299 299 300 300 302 304 305 305 304 304 304 302 301 301 301
294 295 297 299 301 304 306 307 306 305 305 305 305 304 304 303 303 303 303 303 303 304 305 305 305 305 305 305 306 307 307 306 306 306 306 307 308 309 310 311 311 312 312 312 312 311 311 311 311 310 309 309 308 308 308 307 306 306 305 304 304 303 302 302 301 301 300 300 300 301 301 301 301 302 302 304 305 305 304 304 303 302 301 301 301
292 293 295 297 298 301 304 306 307 306 305 305 305 304 303 303 303 302 302 302 302 302 303 303 303 303 303 304 306 307 306 306 305 305 305 306 306 307 309 310 311 311 311 311 311 311 311 311 311 310 309 309 308 307 307 307 306 306 305 306 305 304 303 302 302 302 302 302 302 302 302 302 303 304 304 305 305 305 305 305 304 302 301 301 301
291 292 293 294 296 298 301 304 307 307 306 305 304 304 303 303 303 303 303 303 303 303 303 303 303 303 303 304 305 306 305 305 305 305 305 305 306 306 307 308 310 310 310 310 310 310 310 310 310 310 309 308 307 307 306 306 306 305 306 307 307 306 304 304 304 304 304 304 304 305 304 304 303 304 304 305 305 305 305 305 304 302 301 301 302
290 291 291 292 294 296 299 302 305 306 306 306 305 304 304 303 304 304 304 304 304 304 304 304 304 304 304 304 305 306 306 306 306 305 305 305 305 306 307 307 308 309 309 310 310 310 310 310 310 309 309 308 307 307 306 306 306 306 306 306 306 305 305 304 304 304 305 305 306 306 307 306 305 305 304 305 305 305 304 304 303 302 302 302 302
288 289 290 291 292 294 296 299 302 303 304 305 305 305 304 304 304 304 304 304 303 303 304 303 303 304 304 304 304 305 305 305 306 306 305 305 305 306 306 307 307 308 308 309 309 309 309 309 309 309 309 308 308 307 306 306 306 306 306 306 306 305 305 305 305 305 306 306 307 307 307 307 306 306 306 305 305 304 304 303 303 303 302 303 303
287 287 289 290 291 292 294 296 298 300 301 302 303 304 304 304 304 303 303 303 303 303 303 303 303 303 304 304 304 304 304 304 305 305 305 305 305 306 306 306 307 308 308 308 308 309 309 309 309 309 309 309 308 308 307 307 307 306 306 306 306 306 306 306 306 307 307 307 308 308 307 306 307 307 307 306 305 304 304 304 303 303 303 303 303
285 286 287 288 289 290 291 293 295 297 298 299 300 300 301 303 304 303 303 303 303 302 303 303 303 303 303 304 304 305 305 305 305 305 305 305 306 306 306 307 307 308 308 308 308 308 309 309 309 309 309 309 308 308 308 308 307 307 306 306 306 307 307 307 307 307 308 308 308 308 306 306 307 307 306 306 305 304 303 303 303 303 303 303 302
284 284 285 286 288 288 289 290 292 294 295 296 296 297 297 298 300 301 301 301 301 301 301 302 302 302 302 303 303 304 304 304 305 305 305 306 306 307 307 307 307 307 308 308 308 308 308 308 309 309 309 309 309 308 308 308 307 307 307 307 308 308 308 308 308 309 309 309 309 307 306 306 306 306 305 305 304 304 304 304 303 303 302 301 301
Wind_Speed
33 39 43 44 45 44 45 45 44 44 44 43 42 42 42 42 43 42 40 39 40 40 40 41 42 43 42 42 42 42 42 41 41 41 41 40 39 39 39 39 39 38 37 37 37 37 37 37 37 37 36 35 34 34 33 32 31 30 29 29 28 26 24 21 14 10 13 14 14 15 19 24 27 29 31 30 27 25 24 20 17 14 12 11 11
30 31 33 38 42 44 44 44 45 44 43 43 43 42 42 42 42 41 40 39 39 40 41 42 41 41 42 42 42 42 42 42 41 41 42 41 40 39 39 39 40 38 37 37 38 37 37 37 37 37 36 36 35 33 33 32 31 30 29 29 29 28 26 23 18 13 12 13 14 15 18 23 26 28 31 31 28 27 24 21 17 14 13 12 11
37 32 28 28 33 40 42 41 42 43 42 42 42 42 41 41 41 41 41 41 40 40 41 41 41 41 41 41 42 41 42 42 42 43 43 42 41 40 40 40 40 39 38 38 38 37 36 37 37 37 35 35 34 33 32 32 31 31 30 30 29 28 26 24 21 17 15 14 15 17 19 23 26 27 29 29 28 27 24 19 17 15 15 13 11
41 40 35 32 29 30 35 38 39 40 41 41 41 40 39 39 40 40 41 40 39 40 40 40 39 39 40 41 41 42 43 43 43 43 43 42 41 41 40 41 41 41 40 40 39 38 38 38 38 36 35 35 34 34 33 32 32 33 32 31 30 29 27 25 23 20 17 16 16 19 21 24 26 26 27 27 26 24 21 17 16 16 15 12 11
35 38 40 41 36 30 31 34 36 38 39 40 40 40 40 40 40 40 40 39 38 39 38 38 39 39 40 42 42 43 44 43 43 43 43 42 41 41 41 41 41 41 41 41 40 39 39 39 38 36 35 35 35 35 34 33 33 33 33 32 31 29 27 25 24 22 20 19 19 19 21 23 23 23 25 27 25 22 19 17 17 17 14 13 13
28 25 24 29 33 33 32 32 33 36 38 38 39 40 40 41 41 41 40 39 38 38 38 39 40 40 42 43 43 43 43 43 42 42 43 42 41 41 41 41 41 41 41 41 41 41 40 40 39 37 37 37 37 36 35 34 33 33 32 31 31 29 26 25 24 23 21 21 20 20 22 23 21 20 24 26 24 22 20 19 19 18 15 14 14
24 21 17 17 23 30 33 36 37 38 39 39 39 39 40 41 42 41 40 39 38 38 39 39 40 42 43 42 42 42 42 41 41 41 41 42 42 41 41 41 41 41 41 41 41 41 41 40 39 39 39 39 39 37 36 35 33 32 31 30 29 28 26 25 25 23 22 21 20 21 23 24 22 21 22 23 21 20 21 21 21 20 17 16 15
26 26 25 23 24 27 31 37 42 41 41 41 40 40 41 42 42 41 38 37 38 39 40 40 41 42 42 42 42 42 40 40 40 41 42 42 42 42 42 41 40 40 40 40 40 41 41 40 40 40 41 41 40 38 37 36 34 32 31 29 28 28 27 26 25 24 22 22 21 21 23 24 23 20 20 21 20 20 20 22 22 21 19 18 16
29 29 28 29 28 28 31 37 42 42 41 40 39 40 41 40 40 39 38 38 39 40 40 40 41 41 42 42 42 40 40 41 42 43 43 42 42 42 41 40 40 39 39 39 39 41 41 40 41 41 41 41 40 38 36 36 35 33 31 30 29 28 27 26 25 24 22 21 21 21 21 23 24 22 20 21 23 21 20 21 20 18 17 15 13
25 25 26 27 28 31 35 38 40 39 37 37 37 38 38 38 38 38 38 39 40 39 39 39 40 40 41 42 41 40 40 42 45 46 45 44 43 41 40 40 40 39 38 37 38 40 40 41 42 42 41 40 39 37 35 35 34 33 32 31 31 29 28 27 26 25 23 22 22 22 21 21 25 26 24 23 23 21 20 20 19 15 13 12 11
23 22 22 24 27 31 36 40 41 38 35 34 35 35 36 36 36 37 38 40 40 40 39 39 40 41 42 42 41 41 42 44 47 48 47 46 44 41 40 39 39 39 38 38 38 39 39 40 41 41 41 40 39 37 35 35 34 32 31 31 31 31 30 29 28 26 25 24 23 24 24 23 26 28 26 23 22 20 20 20 18 16 14 12 9
21 20 21 25 30 31 33 38 38 36 33 33 34 35 35 35 35 36 37 39 39 39 39 40 41 42 42 42 42 42 44 46 48 48 48 48 47 44 41 39 38 38 39 39 38 38 38 39 40 41 41 40 39 37 36 35 35 33 31 30 31 31 31 31 30 29 28 27 25 25 26 26 26 28 27 24 23 21 20 19 18 17 16 14 11
13 13 15 19 23 26 28 32 32 31 31 33 34 34 34 34 35 36 37 39 39 39 39 41 42 42 42 41 42 44 45 47 48 48 49 49 49 46 42 39 38 38 38 39 38 38 38 38 38 40 40 39 38 37 36 35 34 32 30 30 30 31 31 31 32 31 31 31 30 28 28 27 27 28 28 26 24 23 21 19 18 17 16 15 14
11 11 11 11 11 13 18 25 29 31 32 32 32 33 33 35 37 37 37 37 37 38 40 41 41 42 43 43 43 44 46 47 47 48 49 49 49 49 45 40 38 38 39 39 39 39 39 39 39 39 39 39 38 36 36 35 33 31 30 30 31 31 31 31 31 32 32 33 32 30 29 28 27 26 27 27 26 25 24 22 20 19 18 16 14
8 8 8 8 7 8 10 15 22 28 31 31 29 30 31 33 35 36 37 38 39 40 41 42 43 44 44 43 43 44 46 47 47 47 49 49 49 49 46 41 38 39 39 40 41 41 41 40 40 40 40 39 38 37 36 34 32 30 30 31 31 31 31 31 31 31 32 32 32 30 28 27 27 25 25 27 27 24 23 23 21 20 18 15 13
10 8 7 7 8 10 10 12 15 20 26 29 29 29 29 29 29 29 31 34 38 41 42 42 43 44 44 44 43 44 46 47 47 47 48 48 47 48 46 42 39 38 39 40 41 42 42 41 41 41 41 40 39 38 36 34 32 31 31 32 32 31 31 31 30 30 30 30 29 27 26 25 25 24 24 26 26 25 23 21 20 19 16 13 12
11 11 10 10 12 14 15 15 15 17 21 25 28 31 32 33 34 33 31 31 32 35 39 42 43 43 43 44 44 43 44 45 46 47 47 46 46 46 45 42 40 39 39 39 41 42 42 42 42 41 41 40 39 37 36 34 33 32 32 32 31 30 30 30 29 29 28 27 27 26 25 24 23 24 24 24 25 26 25 22 21 20 17 13 12
12 11 12 13 15 17 18 18 17 19 21 24 27 30 32 35 38 39 37 35 35 35 35 36 39 43 44 45 44 44 44 45 45 46 46 45 45 46 44 41 39 38 38 38 40 42 43 43 43 43 43 41 40 38 36 35 34 33 33 32 31 31 31 30 29 28 26 25 24 24 23 23 23 24 24 25 26 28 27 25 24 22 19 15 13
13 12 13 14 15 17 18 19 19 20 23 25 26 29 31 33 35 38 39 39 39 39 36 33 34 37 40 43 44 44 43 42 42 43 44 45 45 45 43 40 38 38 37 36 37 39 41 42 44 45 44 43 41 39 38 36 35 35 35 34 33 33 34 32 30 29 27 25 24 23 22 21 22 22 23 25 26 28 28 26 24 22 19 17 15
14 12 13 14 17 18 19 20 21 22 24 27 28 30 31 31 32 35 38 38 38 40 39 36 34 35 36 38 41 43 43 41 40 41 43 43 45 45 42 39 38 38 36 35 35 35 37 39 41 44 44 43 42 40 39 38 37 37 37 37 36 36 35 33 32 31 29 27 25 24 23 22 22 22 24 25 27 28 26 24 22 20 17 17 16
15 15 15 16 18 21 21 22 22 23 25 26 27 28 29 29 28 31 34 35 34 34 35 33 31 33 35 35 35 40 43 42 41 41 41 42 44 45 43 41 41 39 35 34 34 34 35 37 39 42 43 42 41 40 39 39 38 39 39 39 39 37 35 34 33 31 29 28 26 25 24 24 24 24 26 27 28 27 25 22 20 18 16 15 16
18 18 18 18 20 21 22 22 22 21 20 18 20 23 26 27 27 28 30 32 30 30 31 29 25 26 31 34 35 37 40 42 42 42 42 43 45 46 46 46 45 40 35 33 35 36 37 37 39 42 43 43 42 41 40 40 39 40 41 40 39 37 35 36 35 32 30 29 28 27 27 27 27 27 28 28 28 26 24 22 20 17 16 15 14
16 16 17 17 18 20 22 22 22 21 21 21 22 23 25 28 29 28 28 29 27 27 30 29 25 23 26 28 31 34 37 38 40 42 42 42 44 47 49 49 47 43 38 38 39 38 37 37 38 41 44 44 44 43 42 41 41 42 42 40 39 38 35 35 36 35 32 31 30 30 30 30 30 30 30 29 28 26 24 22 20 18 17 15 14
14 14 15 17 19 21 22 23 23 24 24 23 22 22 25 28 30 28 27 27 26 24 26 26 24 24 24 24 25 29 32 31 34 40 44 43 43 46 49 51 50 47 44 42 41 40 39 39 40 42 44 45 46 45 44 43 42 43 43 41 39 38 35 35 36 35 33 33 32 32 32 32 32 32 32 30 28 26 23 21 20 19 17 16 15
15 15 16 19 21 22 21 21 21 20 19 17 18 21 24 26 27 27 27 26 25 23 23 25 25 24 23 22 23 28 30 29 32 38 42 44 44 45 47 51 53 51 48 45 43 42 42 42 43 44 45 47 47 47 46 45 44 44 44 42 39 38 36 36 36 36 35 34 33 32 33 34 34 33 32 29 27 26 24 22 21 20 18 17 16
14 15 16 19 20 21 20 18 16 14 14 15 16 20 23 25 27 27 26 25 25 23 23 24 24 23 23 23 25 28 30 31 33 36 38 39 41 44 46 51 54 55 52 49 45 43 43 44 45 45 46 48 50 50 49 47 46 45 44 42 40 39 38 37 36 36 34 31 31 32 34 36 35 32 30 28 28 27 25 23 22 21 20 19 19
14 15 16 18 19 18 17 16 13 12 14 15 17 20 24 26 26 26 24 24 24 24 24 25 24 23 23 25 27 29 31 33 35 36 36 36 38 42 46 50 54 53 49 45 43 42 43 45 45 45 46 47 48 47 45 44 44 43 42 41 40 40 40 38 37 36 34 32 33 36 36 35 33 30 28 28 28 27 26 24 22 21 21 21 20
12 14 16 17 17 16 16 15 15 14 14 16 18 22 25 25 24 26 27 27 26 25 25 25 26 27 26 26 27 27 28 33 37 39 41 40 40 42 45 48 51 51 44 39 38 38 38 39 39 40 41 40 38 37 37 37 38 40 40 40 39 39 38 36 35 36 35 34 35 35 34 32 30 28 28 28 28 26 25 24 23 22 22 22 21
11 13 15 15 16 17 18 17 16 15 15 16 19 23 26 26 26 28 30 31 31 31 29 28 29 31 32 32 31 26 26 33 42 47 49 49 48 46 46 48 51 50 45 40 38 34 32 34 35 36 36 34 33 32 32 33 34 36 38 38 36 36 36 36 35 34 34 33 33 33 32 30 28 27 27 27 27 25 24 24 23 22 22 22 21
12 13 13 13 14 16 17 17 16 16 16 16 19 23 26 28 29 30 32 34 34 34 35 35 35 36 35 37 38 35 34 40 48 51 52 52 51 49 49 50 52 50 46 42 38 34 33 34 35 35 35 33 33 33 32 32 33 34 35 36 36 37 37 37 35 33 34 35 34 33 32 30 28 27 27 27 26 25 24 23 23 23 23 23 22
10 10 11 12 12 11 12 14 16 17 18 18 19 21 24 27 29 31 32 34 35 35 37 38 40 40 39 39 41 42 42 44 47 50 53 53 52 51 50 50 51 51 50 45 39 35 34 33 33 35 35 34 34 35 35 34 35 35 35 35 35 36 38 38 37 35 35 35 34 33 32 32 30 28 28 28 26 25 24 23 23 25 26 25 24
12 11 12 15 15 13 12 12 13 15 17 19 19 20 20 20 22 25 27 28 29 32 35 38 41 43 44 43 41 40 40 42 44 48 52 54 53 51 49 49 49 52 53 49 40 36 36 34 31 32 34 34 35 36 36 36 36 36 35 34 35 38 41 41 38 35 34 35 35 34 33 32 31 30 29 29 27 26 25 25 25 26 26 26 25
15 15 16 16 14 14 14 14 12 12 13 15 17 18 18 15 14 19 23 23 23 26 29 33 38 41 44 45 43 40 39 42 45 47 50 52 52 50 48 49 51 53 53 45 35 33 36 36 33 33 35 35 35 36 36 37 37 37 38 38 39 41 40 35 30 30 32 33 34 35 33 32 31 30 29 29 28 26 26 26 26 26 26 25 25
15 16 17 16 12 10 12 14 14 12 12 13 14 15 17 16 15 16 18 17 16 19 23 28 32 35 38 42 43 41 39 40 43 46 47 48 49 48 48 48 48 51 51 45 37 35 36 34 32 34 36 36 36 36 36 36 36 37 38 38 38 37 36 33 31 30 31 32 33 34 34 32 32 31 30 28 27 26 26 27 28 28 27 25 25
15 16 18 17 14 11 11 13 13 13 13 14 14 14 15 18 18 18 18 15 14 15 19 23 27 30 33 37 40 41 41 41 43 45 46 45 44 44 42 37 34 36 38 37 35 36 36 35 34 36 36 35 35 36 36 36 37 38 39 37 36 35 34 33 32 31 30 30 32 33 33 33 33 32 30 28 27 27 27 27 28 29 29 27 26
15 15 17 17 15 14 14 13 13 14 15 15 15 15 16 17 18 19 20 19 18 17 19 21 23 25 28 32 37 40 43 44 44 46 47 45 43 41 38 32 29 31 33 33 33 34 35 36 36 35 35 35 35 36 37 38 38 39 38 35 33 32 32 33 34 34 33 32 32 32 32 33 32 30 28 27 27 28 28 27 26 27 28 28 28
19 15 17 18 17 15 15 15 15 16 16 16 16 16 17 17 17 17 18 18 18 17 17 20 20 19 22 27 32 38 42 42 41 42 43 43 44 45 40 36 35 34 34 35 35 35 35 35 34 33 33 33 33 34 36 37 37 36 33 31 31 33 35 37 38 38 37 36 35 35 35 34 32 30 27 27 27 27 26 25 23 22 25 27 28
26 21 19 21 19 16 15 17 18 18 18 18 18 18 18 18 16 15 15 16 16 14 14 15 16 16 18 23 27 31 33 31 28 29 30 34 41 43 40 40 40 37 36 37 39 38 36 35 34 33 32 32 33 34 35 35 35 35 34 34 36 38 39 38 37 37 38 39 39 38 38 36 34 32 29 28 28 27 25 24 22 21 22 24 25
31 26 22 23 23 20 18 19 20 20 19 19 19 19 19 18 17 15 14 14 13 11 10 11 13 15 18 21 22 22 22 21 21 22 24 30 36 37 35 36 38 37 37 39 40 40 37 35 34 34 34 34 36 36 36 36 36 36 37 38 38 39 39 38 38 39 40 39 39 39 39 38 36 34 32 30 28 27 26 24 23 23 24 24 24
33 29 25 25 26 24 23 22 21 20 20 19 18 18 18 18 18 17 15 13 11 10 9 10 12 14 16 19 22 23 21 21 23 26 28 31 34 33 32 34 37 37 37 38 38 38 37 35 35 36 36 36 37 38 38 39 39 39 40 41 40 39 38 39 39 39 38 37 37 37 38 37 36 34 33 32 30 29 27 25 24 24 25 25 24
34 31 29 27 26 24 23 22 20 20 19 18 17 17 17 18 19 18 18 16 13 10 9 10 12 13 14 16 21 24 23 22 25 29 32 35 37 37 37 39 40 39 39 38 38 38 37 35 36 37 37 37 39 39 40 40 40 40 41 41 39 37 38 38 37 36 35 35 35 35 37 37 36 34 33 33 32 30 29 27 25 25 26 25 24
33 31 30 28 24 21 21 20 19 18 18 18 18 17 17 17 18 18 18 18 15 11 9 9 11 13 12 12 15 18 19 19 22 26 28 31 35 38 38 38 37 38 38 39 39 40 39 38 38 39 38 39 40 40 40 40 40 41 41 40 38 37 37 37 37 37 37 36 37 38 38 37 37 36 35 33 32 31 30 29 28 27 26 25 23
33 30 29 28 25 21 19 18 17 17 18 18 18 19 18 17 16 16 17 17 15 13 10 8 9 9 7 6 8 11 14 16 20 22 22 24 28 29 27 26 27 30 33 34 33 33 35 35 35 37 39 39 40 42 43 43 43 42 42 41 40 39 39 39 39 40 39 36 35 35 35 34 35 36 36 35 33 32 31 30 28 28 27 26 24
31 29 28 28 26 23 21 19 17 18 18 17 17 19 19 18 17 16 15 14 14 13 11 9 8 7 4 5 4 6 8 12 15 18 20 22 24 23 19 18 20 23 26 27 27 27 28 29 30 32 35 36 37 40 41 42 43 44 44 43 41 40 40 39 38 37 36 34 33 32 32 32 33 34 35 34 33 32 31 30 28 26 27 27 25
30 27 27 28 27 25 24 21 18 19 19 18 17 18 19 19 18 17 16 14 13 13 11 9 7 4 1 2 2 3 6 9 10 13 15 17 18 17 15 16 19 21 22 24 25 26 28 30 31 31 32 33 35 37 38 39 40 42 43 43 42 41 40 38 37 36 35 35 34 34 33 33 34 35 35 34 34 33 32 31 28 27 27 27 26
29 27 27 27 26 26 26 23 20 19 19 18 18 18 18 18 18 18 18 17 15 14 13 12 10 8 5 4 4 3 4 6 7 9 10 12 14 14 13 14 17 19 20 21 22 24 27 30 31 32 33 33 33 34 36 37 38 39 41 41 41 41 40 39 37 36 35 35 35 34 33 34 35 36 36 34 34 33 33 32 30 29 28 28 27
29 28 28 28 26 25 26 25 22 21 19 18 18 18 17 18 18 18 18 18 18 17 16 16 14 12 10 7 7 5 4 3 4 6 8 9 11 13 12 12 14 16 17 19 21 22 24 27 28 29 30 30 31 32 34 35 36 38 39 39 37 37 37 37 36 35 35 34 33 32 32 34 36 36 36 34 33 33 33 32 32 31 30 29 28
28 28 28 28 27 25 24 25 24 23 21 20 19 18 17 18 18 18 18 19 19 19 19 18 17 15 13 11 9 7 4 3 4 5 7 9 10 12 13 14 14 15 17 19 20 21 23 24 25 27 28 29 30 31 32 33 35 37 38 36 34 34 34 34 33 33 32 30 30 31 33 35 36 35 35 34 34 34 34 33 32 31 30 28 26
28 28 28 28 27 25 24 23 23 22 22 21 20 19 18 18 18 19 19 19 20 20 20 19 19 17 16 14 12 9 6 4 3 4 5 6 8 9 11 13 14 16 18 19 20 22 23 24 25 26 28 29 30 31 32 33 35 35 34 33 32 32 31 31 30 29 27 26 27 30 34 36 35 34 34 34 34 35 35 34 32 30 28 27 25
28 28 28 27 26 26 26 25 23 23 23 23 22 21 20 18 18 19 20 20 20 21 21 20 20 19 18 16 14 12 9 7 5 4 4 4 6 7 9 11 13 15 17 18 20 22 23 24 25 27 28 29 30 31 31 31 33 32 31 30 30 29 29 29 29 27 25 24 25 28 31 33 32 31 31 32 33 34 34 33 31 29 27 25 23
27 29 29 28 27 27 28 28 26 24 23 23 23 23 22 21 20 21 22 22 22 22 22 22 22 22 21 20 18 16 14 12 9 7 6 5 6 8 10 12 14 15 17 18 19 20 21 23 24 26 27 28 28 29 29 30 30 29 28 27 26 26 27 27 26 25 23 24 25 26 28 29 28 28 29 30 31 32 31 30 28 26 24 23 22
Wind_Direction
235 221 212 208 206 207 208 209 211 212 212 214 215 216 215 214 214 215 214 212 210 209 211 213 214 214 214 214 214 214 215 215 216 216 217 218 219 219 219 219 220 220 220 222 223 223 225 226 228 229 229 230 231 232 231 232 235 235 234 234 232 230 229 223 222 239 246 245 249 248 239 232 226 223 222 222 222 223 221 219 221 230 237 245 253
249 245 229 217 211 208 208 209 209 210 212 213 214 216 216 215 215 215 214 213 211 210 211 213 214 214 215 215 215 214 214 215 215 215 216 218 218 218 218 218 218 219 219 221 222 222 223 225 227 228 229 230 232 233 232 232 232 231 229 230 231 231 230 226 223 225 228 233 239 239 235 228 223 220 220 220 219 217 214 214 221 230 239 247 250
234 246 252 242 226 215 211 210 209 210 211 213 214 215 216 217 216 216 215 214 213 213 213 213 214 214 215 216 217 216 215 215 215 215 216 217 217 217 217 217 218 218 218 220 222 221 222 223 226 226 226 228 231 232 232 231 229 228 227 227 229 231 232 229 225 221 216 220 227 227 227 224 221 220 218 217 216 213 212 219 227 233 240 247 249
225 228 236 246 247 234 221 214 211 211 211 212 215 215 215 217 217 218 217 215 214 215 215 215 215 215 215 216 217 217 216 215 215 216 217 218 218 217 217 217 218 219 220 221 222 221 221 222 224 225 224 226 229 229 230 229 228 228 228 229 230 232 233 229 227 224 215 211 215 220 222 219 217 217 213 209 210 212 215 224 230 233 239 246 252
221 219 220 226 232 237 235 224 214 212 213 213 214 215 216 217 218 219 219 217 216 216 215 215 215 215 216 217 217 217 217 216 215 216 217 218 219 219 218 218 219 220 221 222 222 222 222 222 223 223 222 224 225 227 229 230 230 230 231 231 232 232 233 230 227 226 220 213 209 210 213 212 209 209 207 203 204 209 217 225 229 231 236 244 253
218 219 221 223 222 225 232 234 225 216 214 215 215 215 216 217 218 219 218 218 218 217 216 216 216 217 218 219 218 218 218 217 216 217 218 218 219 220 220 220 220 220 221 222 222 223 223 223 223 222 221 222 223 225 228 230 230 231 231 232 232 230 228 226 225 225 224 220 210 202 202 204 201 201 204 204 206 210 215 222 226 229 233 242 251
209 210 219 233 236 231 229 232 232 223 216 216 217 217 217 218 219 219 218 218 218 217 218 217 218 219 220 220 220 220 219 218 218 218 218 218 219 220 221 220 220 221 222 222 222 223 224 224 223 222 221 222 222 225 228 230 231 232 233 233 231 226 222 221 221 221 221 217 208 199 197 198 198 198 201 205 213 219 219 219 221 224 228 239 248
212 209 208 213 229 240 240 237 235 229 220 217 217 217 218 219 220 220 219 218 218 219 219 218 218 219 220 221 221 220 219 219 219 219 219 219 219 220 221 220 220 220 221 222 222 223 224 224 223 223 223 224 225 227 230 231 231 232 233 232 228 222 219 218 218 219 217 210 204 199 194 193 195 197 198 201 208 216 218 219 222 224 227 235 243
221 216 209 206 217 238 250 246 240 232 222 218 217 217 219 220 220 220 219 219 220 220 220 220 219 219 219 220 220 220 219 219 221 221 220 219 219 220 220 220 219 219 220 221 222 223 223 223 223 223 224 226 228 231 234 234 232 231 229 226 222 220 219 218 218 215 211 205 201 197 192 192 194 195 197 200 205 210 213 216 223 225 224 229 233
224 217 210 209 220 234 243 245 244 235 224 219 219 219 220 221 221 220 220 220 221 221 221 221 220 219 220 219 219 218 218 220 222 223 222 220 219 220 220 220 219 218 218 219 221 222 223 223 224 224 224 226 229 233 235 234 233 232 230 225 222 220 218 216 216 213 208 203 200 194 190 193 197 199 202 205 207 210 208 210 215 215 211 219 227
229 225 221 224 229 231 231 236 239 235 226 221 222 222 222 222 221 221 221 221 222 221 221 220 220 221 221 220 219 218 218 221 223 224 224 222 220 220 220 220 219 217 217 217 219 221 222 222 223 224 224 225 228 232 234 234 234 233 233 232 230 227 222 218 217 214 210 208 205 198 194 196 201 204 205 204 203 205 205 205 207 205 203 210 221
226 224 226 232 235 232 228 229 233 233 228 226 226 225 224 223 222 221 221 221 222 221 220 220 221 222 222 222 221 220 221 223 224 224 225 224 222 221 220 220 218 217 217 217 218 220 221 221 221 222 224 225 227 230 232 234 235 235 236 237 235 233 232 231 227 220 214 211 208 203 201 202 203 205 205 203 201 202 203 204 205 206 207 210 216
195 199 205 217 228 234 235 236 239 240 237 234 232 229 227 225 224 223 222 222 221 220 221 221 222 222 222 223 223 222 223 224 224 224 225 225 224 222 220 220 219 217 217 216 218 220 221 220 220 221 223 224 226 229 230 231 233 233 236 238 236 234 236 237 236 232 225 219 212 209 210 210 209 209 208 206 203 202 203 203 206 209 210 214 224
169 176 183 191 208 228 240 243 245 246 244 242 239 235 231 229 227 225 224 223 221 220 220 221 222 222 222 223 224 224 225 225 225 225 226 226 224 222 220 220 220 219 218 217 217 219 221 220 218 219 222 223 224 226 226 227 228 228 230 232 232 231 231 231 232 232 231 226 221 220 220 219 220 220 213 207 206 208 206 206 208 210 212 219 230
198 189 192 200 211 226 241 247 248 247 246 244 243 242 239 236 233 230 226 223 222 222 221 220 220 221 222 222 223 225 226 226 225 225 226 227 225 222 220 220 220 220 219 218 217 218 221 221 219 219 220 221 222 223 223 223 224 224 224 225 227 227 227 228 229 229 229 228 228 229 230 229 231 228 218 211 213 217 217 215 215 212 212 217 224
239 241 237 239 244 250 254 257 257 254 248 242 240 240 240 241 242 242 240 234 227 223 222 221 221 221 221 221 222 225 227 227 225 226 227 226 225 221 218 218 220 220 219 218 217 217 219 220 218 218 220 220 221 221 221 222 222 221 220 222 223 224 226 227 228 228 229 229 230 234 236 236 234 228 219 215 217 219 217 212 208 204 203 206 216
242 250 259 265 264 264 265 265 265 262 255 247 243 242 240 240 242 243 246 250 247 237 227 222 221 221 221 220 220 223 227 228 226 226 227 226 223 219 216 217 219 220 220 218 216 216 218 219 217 217 219 220 220 220 220 221 221 219 218 218 218 220 222 222 222 223 224 227 230 233 235 234 229 224 220 218 217 215 207 196 193 195 196 199 215
244 252 264 270 268 266 269 273 273 267 261 256 254 251 248 246 244 239 235 240 249 252 248 237 227 223 221 221 221 222 226 228 227 227 227 225 222 217 215 215 218 220 219 218 216 216 217 218 217 216 217 219 220 219 219 219 219 217 216 214 213 215 216 216 215 216 216 219 223 227 227 226 224 220 219 217 214 211 206 200 197 196 198 205 218
245 256 268 274 276 274 274 278 278 272 266 262 260 258 254 252 250 244 237 234 236 242 250 252 246 236 228 223 222 222 225 228 228 227 227 226 222 217 213 213 216 219 218 217 216 216 216 217 217 216 217 219 219 218 219 219 219 218 216 213 211 213 214 213 212 212 211 211 213 216 215 214 214 213 211 210 208 210 212 211 205 201 203 213 216
254 265 275 281 282 280 279 279 276 272 268 264 262 260 256 254 251 246 242 239 237 237 239 241 246 250 246 235 226 223 224 226 228 228 227 226 223 217 212 212 216 218 217 215 214 214 214 215 215 215 215 217 219 218 219 220 221 221 217 213 213 215 215 213 213 213 211 209 208 209 206 203 203 203 201 201 202 205 208 210 210 210 212 216 214
271 276 279 281 281 280 279 277 274 273 271 265 263 263 259 254 252 249 246 243 241 241 241 237 235 240 247 245 235 227 223 223 225 226 226 227 224 218 213 214 218 218 216 214 213 212 212 212 213 212 211 215 218 218 219 222 223 222 220 219 221 221 217 213 213 213 211 208 205 202 199 196 196 195 194 195 197 200 204 207 213 218 221 221 217
277 277 276 276 277 278 278 276 273 271 266 258 259 264 264 259 254 250 246 244 240 240 243 244 242 239 241 242 241 238 230 223 222 224 225 225 224 219 216 217 220 219 215 214 213 213 212 211 211 209 208 212 217 218 220 223 223 223 224 224 224 223 220 216 213 210 207 205 201 197 194 193 194 193 194 196 199 202 206 210 216 223 229 233 230
284 281 279 278 277 277 278 276 271 262 253 248 249 251 254 255 253 247 240 236 235 234 236 240 243 246 246 242 241 246 244 232 224 223 225 225 223 220 219 219 219 217 215 215 215 214 212 211 210 208 207 210 215 217 219 222 222 224 225 223 222 223 220 215 211 207 205 203 200 197 195 195 197 197 198 201 204 206 210 214 221 227 232 238 241
290 283 281 280 280 280 278 272 262 253 250 251 250 246 246 249 249 246 239 231 228 230 232 230 226 228 236 235 231 238 248 247 237 229 227 227 225 221 220 219 218 217 216 217 217 214 210 209 209 207 205 210 215 217 218 220 222 223 222 220 220 220 216 211 208 206 203 202 201 199 198 200 202 204 205 207 209 211 215 219 224 231 236 240 243
288 285 283 280 279 278 274 264 256 254 256 257 254 251 250 249 246 242 237 231 228 227 227 227 223 220 223 226 225 229 237 248 250 242 234 230 228 224 222 219 217 216 216 217 217 215 211 210 210 206 206 210 215 216 217 218 220 221 219 216 216 215 212 210 207 205 204 204 203 202 205 208 211 212 214 214 213 215 218 221 225 231 235 237 235
295 294 291 285 280 274 266 259 257 261 266 265 262 259 255 249 245 240 234 228 225 221 217 219 219 217 216 217 220 224 226 231 241 245 242 236 230 226 223 220 217 216 217 216 216 215 212 211 210 207 206 211 214 213 213 215 216 216 215 213 212 213 211 208 205 205 206 207 206 209 213 216 217 218 218 218 218 219 221 223 226 228 227 226 223
296 296 291 288 284 274 265 263 264 266 268 266 262 260 256 249 242 238 232 227 224 220 216 213 210 209 211 211 212 215 216 218 225 233 238 238 232 226 222 219 215 215 215 214 214 213 211 209 208 206 205 208 210 209 210 212 211 209 208 209 211 213 212 211 210 210 211 212 214 219 221 221 220 220 221 221 223 224 223 222 223 220 215 216 220
294 291 286 285 280 271 265 266 265 262 262 262 258 256 254 249 242 238 234 229 225 223 220 217 213 210 211 211 210 208 208 210 215 220 226 230 228 223 218 214 212 213 212 209 209 210 207 202 199 198 199 201 203 203 205 209 208 205 204 207 210 212 212 212 213 215 215 215 219 221 221 220 220 220 221 222 222 221 218 216 214 211 211 214 220
300 290 283 279 276 269 261 258 259 259 257 258 258 257 256 251 247 247 245 240 235 231 228 225 221 217 215 216 215 207 202 208 215 219 223 226 224 219 213 211 210 211 208 205 203 200 193 187 186 187 190 194 195 197 201 204 203 203 204 206 208 208 209 209 210 212 212 214 217 218 216 215 216 216 217 218 217 213 210 208 208 212 216 218 220
299 300 296 289 284 275 263 256 261 267 266 262 261 262 263 259 253 251 254 254 249 242 237 235 232 227 223 223 223 219 215 217 219 221 222 224 223 220 216 213 211 207 204 201 197 189 181 178 180 184 187 189 191 194 197 198 197 199 203 205 205 204 205 208 211 211 210 212 214 215 213 211 210 209 211 212 210 207 205 208 214 220 220 217 220
322 322 322 319 315 304 287 276 276 276 271 268 265 263 267 270 265 259 258 259 258 253 247 245 242 237 232 230 230 229 227 226 225 223 222 222 222 220 216 213 208 203 199 195 188 182 179 179 182 186 188 189 193 195 195 195 195 197 199 202 203 201 202 208 213 211 209 210 211 211 210 208 207 207 208 209 209 207 209 215 222 224 220 216 219
10 3 355 345 338 331 321 309 298 288 277 270 266 261 262 270 275 272 267 262 260 257 254 251 249 245 240 237 235 232 229 227 226 225 223 221 220 216 211 205 202 200 198 194 185 180 182 185 188 189 188 191 195 196 194 195 196 196 195 197 199 201 203 208 210 209 207 208 208 208 208 208 207 208 209 211 211 211 214 219 221 219 215 213 215
12 5 358 353 346 336 332 329 320 307 293 281 273 266 262 263 272 279 277 270 262 258 254 251 249 247 243 240 237 235 231 227 225 225 224 220 217 211 204 200 199 198 195 190 182 181 186 190 192 191 191 194 197 196 195 196 197 196 196 198 200 201 202 203 205 208 210 210 208 208 209 210 210 211 211 213 214 215 216 218 216 211 207 207 210
3 359 352 350 347 339 335 331 322 314 309 300 288 279 274 271 271 276 279 277 269 260 254 250 248 246 243 240 237 236 234 230 227 227 225 220 214 206 197 194 196 196 192 188 184 185 190 193 193 192 194 197 197 195 195 196 197 196 198 200 200 199 197 197 201 207 210 211 210 210 211 211 210 211 213 214 215 217 218 216 210 205 203 205 209
354 357 352 348 344 338 332 329 324 317 311 306 299 293 289 285 279 273 271 269 267 262 258 254 249 245 242 239 237 236 235 233 231 228 225 220 211 198 187 180 182 187 190 191 191 191 192 194 194 196 197 197 196 195 194 196 197 197 197 198 197 194 190 191 197 202 205 208 210 210 210 209 210 212 215 216 215 216 216 213 209 207 208 211 214
349 357 354 349 347 343 336 333 332 325 319 315 313 310 307 300 289 276 269 264 260 259 262 262 259 253 247 241 238 235 233 233 231 229 225 218 205 190 178 173 175 182 189 195 196 195 196 197 197 197 197 196 196 196 195 196 197 197 197 195 190 184 182 188 194 198 201 207 211 210 208 208 210 212 215 216 215 214 213 213 212 213 215 216 217
345 351 352 349 347 348 345 342 342 341 337 336 336 332 325 317 305 288 274 265 258 256 261 263 262 258 252 246 240 234 231 231 229 226 221 212 200 190 184 181 182 186 191 194 195 195 199 201 199 197 196 195 195 195 195 195 195 194 193 188 182 183 190 196 198 198 200 205 212 214 212 210 210 210 211 211 210 209 209 210 212 216 219 219 218
346 345 350 353 350 348 349 350 351 353 352 353 353 347 336 329 324 310 291 276 265 260 259 256 250 244 243 245 241 233 227 225 220 215 210 200 192 190 188 187 188 191 194 195 195 196 199 200 198 194 192 191 191 191 192 192 191 190 188 184 184 191 198 199 198 200 202 205 211 216 216 213 212 211 210 210 211 210 210 210 209 210 212 211 209
346 341 345 354 356 354 354 354 354 355 356 357 358 353 342 335 334 331 319 303 288 277 264 250 242 239 239 239 233 222 212 204 197 194 192 190 190 191 190 190 193 196 196 195 196 197 197 195 193 190 188 188 188 189 188 189 189 189 187 186 188 194 198 197 197 202 205 207 211 215 215 214 213 212 212 212 212 211 211 210 209 207 204 200 199
344 341 343 353 359 359 357 356 356 357 357 356 357 356 350 343 339 335 330 321 310 298 284 264 254 250 243 234 223 209 197 192 192 190 186 186 190 192 192 193 197 198 197 196 196 196 194 191 188 187 186 186 187 187 189 190 190 190 189 190 192 194 196 196 199 202 205 208 212 214 212 212 212 212 212 213 214 214 212 210 208 207 205 203 201
345 346 348 353 359 0 359 356 355 357 359 358 359 359 356 350 347 343 338 332 324 313 297 282 276 271 260 242 225 211 202 198 198 195 191 189 189 190 193 196 198 197 195 195 195 194 193 189 186 185 185 186 188 189 190 191 191 190 190 192 192 194 196 197 200 203 206 210 214 215 213 212 210 210 211 214 216 218 218 215 211 208 206 205 204
347 349 349 351 354 358 359 356 353 357 2 3 4 6 5 0 356 353 349 344 341 333 315 295 288 284 273 252 228 216 211 207 202 200 198 195 192 192 195 198 198 196 195 194 194 193 191 188 187 187 187 188 189 189 189 190 190 190 190 191 191 192 194 197 200 204 207 211 215 217 216 214 212 212 214 216 218 220 220 219 215 210 207 206 206
348 347 348 350 351 353 357 359 358 0 5 6 5 9 13 13 10 6 0 355 352 351 346 328 308 294 272 238 221 218 213 205 201 201 201 198 195 194 195 196 196 195 194 193 192 192 191 188 187 188 189 190 190 191 192 192 191 190 190 191 192 193 195 197 200 204 206 208 212 215 216 215 214 214 215 218 221 221 221 219 216 212 210 210 209
350 348 349 352 351 349 353 359 3 5 8 10 11 13 16 17 17 15 11 6 1 0 359 346 322 301 245 196 205 224 212 198 195 198 199 198 197 195 190 188 190 191 190 190 191 193 192 190 190 190 190 191 193 194 195 194 193 192 191 191 192 194 196 197 199 201 203 205 209 212 214 215 215 215 216 219 221 220 218 216 215 213 211 210 209
352 351 351 352 352 349 348 352 2 10 13 13 14 16 18 19 18 17 16 14 9 7 9 10 1 346 245 178 171 192 192 190 193 197 196 194 194 192 187 186 190 192 190 189 190 192 193 195 195 193 191 192 194 195 195 195 194 194 193 194 195 197 198 199 200 202 203 206 210 212 212 213 214 214 215 217 218 216 214 215 216 215 212 210 209
354 355 354 354 352 349 348 349 358 9 16 16 15 16 17 19 20 20 18 16 14 12 14 23 32 41 53 57 53 77 143 170 182 191 195 194 191 187 182 181 187 192 193 191 190 191 194 196 197 195 192 191 192 193 194 194 194 194 196 199 202 202 201 201 202 203 203 206 209 212 212 212 213 214 214 214 215 214 213 214 216 216 214 212 212
355 356 356 356 354 351 352 356 1 7 13 16 17 17 18 19 22 23 20 17 16 15 16 22 31 43 55 60 57 61 84 131 168 184 193 198 195 191 185 180 182 188 193 194 193 194 195 197 197 196 192 190 190 191 193 193 194 195 198 202 205 204 203 203 204 205 205 205 207 211 215 215 214 214 213 213 213 212 211 212 214 216 216 215 214
356 357 358 359 357 354 356 0 4 7 10 12 13 16 20 21 22 23 22 21 19 19 19 21 27 36 47 54 57 63 81 119 157 174 182 188 189 189 187 185 183 185 189 192 194 195 196 196 197 196 194 192 192 192 192 192 195 197 199 201 202 202 203 204 206 208 208 207 209 214 219 218 215 214 213 213 212 211 210 211 213 214 215 216 217
358 360 0 0 359 358 359 2 4 8 12 13 13 14 17 21 24 25 25 26 27 27 26 26 28 34 41 46 49 54 64 85 116 141 157 167 175 180 183 184 185 187 189 192 194 196 196 197 197 196 194 193 193 192 192 194 197 199 200 201 202 203 204 206 208 209 210 210 213 218 220 218 216 215 215 213 212 211 210 210 212 213 213 216 219
0 2 2 2 2 2 5 7 8 10 14 17 17 14 14 18 24 27 28 29 30 31 31 31 32 35 39 43 48 52 54 58 69 87 107 136 159 172 178 181 184 186 188 190 192 194 194 194 194 192 191 191 191 191 192 196 199 200 200 200 200 199 199 202 206 207 208 210 214 218 218 215 213 212 212 211 209 208 208 209 210 211 213 217 220
1 3 5 6 6 7 8 9 10 11 14 19 22 21 19 20 23 26 29 32 33 33 34 35 35 37 39 42 46 51 54 61 71 83 95 117 140 154 161 167 173 177 180 182 185 188 189 190 189 187 186 186 187 190 193 196 198 199 199 198 197 195 194 197 201 204 208 212 215 215 213 210 208 206 206 206 206 206 206 207 209 212 215 218 220